| time (UTC) | temp C | wind direction | speed KPH | gust KPH | rain 1hr cm | rain 24hr cm | rain mn cm | humidity % | barometer mb |
| 20260510121013 | 6 | 63 | 3.2 | 6.4 | 0.00 | 0.00 | 0.00 | 64 | 1019.9 |
| 20260510120513 | 6 | 58 | 4.8 | 6.4 | 0.00 | 0.00 | 0.00 | 64 | 1019.8 |
| 20260510120012 | 6 | 64 | 4.8 | 6.4 | 0.00 | 0.00 | 0.00 | 64 | 1019.7 |
| 20260510115509 | 6 | 63 | 3.2 | 4.8 | 0.00 | 0.00 | 0.00 | 64 | 1019.6 |
| 20260510115009 | 6 | 63 | 3.2 | 6.4 | 0.00 | 0.00 | 0.00 | 64 | 1019.6 |
| 20260510114508 | 6 | 60 | 4.8 | 8.0 | 0.00 | 0.00 | 0.00 | 64 | 1019.5 |
| 20260510114010 | 6 | 64 | 4.8 | 8.0 | 0.00 | 0.00 | 0.00 | 64 | 1019.4 |
| 20260510113506 | 6 | 59 | 6.4 | 8.0 | 0.00 | 0.00 | 0.00 | 63 | 1019.4 |
| 20260510113006 | 6 | 68 | 6.4 | 9.7 | 0.00 | 0.00 | 0.00 | 63 | 1019.3 |
| 20260510112508 | 6 | 60 | 6.4 | 12.9 | 0.00 | 0.00 | 0.00 | 62 | 1019.2 |
| 20260510112005 | 6 | 52 | 8.0 | 12.9 | 0.00 | 0.00 | 0.00 | 62 | 1019.2 |
| 20260510111504 | 6 | 61 | 9.7 | 14.5 | 0.00 | 0.00 | 0.00 | 61 | 1019.2 |
| 20260510111003 | 6 | 56 | 4.8 | 11.3 | 0.00 | 0.00 | 0.00 | 60 | 1019.1 |
| 20260510110502 | 6 | 47 | 6.4 | 11.3 | 0.00 | 0.00 | 0.00 | 60 | 1019.1 |
| 20260510110005 | 6 | 56 | 4.8 | 9.7 | 0.00 | 0.00 | 0.00 | 61 | 1019.0 |
| 20260510105503 | 6 | 40 | 3.2 | 8.0 | 0.00 | 0.00 | 0.00 | 61 | 1019.0 |
| 20260510105000 | 6 | 18 | 1.6 | 8.0 | 0.00 | 0.00 | 0.00 | 63 | 1019.0 |
| 20260510104601 | 6 | 43 | 1.6 | 4.8 | 0.00 | 0.00 | 0.00 | 63 | 1018.8 |
| 20260510104103 | 6 | 18 | 0.0 | 3.2 | 0.00 | 0.00 | 0.00 | 64 | 1018.8 |
| 20260510103600 | 6 | 20 | 0.0 | 6.4 | 0.00 | 0.00 | 0.00 | 64 | 1018.7 |
| 20260510103109 | 6 | 333 | 1.6 | 6.4 | 0.00 | 0.00 | 0.00 | 65 | 1018.6 |
| 20260510102558 | 6 | 4 | 0.0 | 4.8 | 0.00 | 0.00 | 0.00 | 66 | 1018.6 |
| 20260510102100 | 5 | 330 | 0.0 | 4.8 | 0.00 | 0.00 | 0.00 | 66 | 1018.4 |
| 20260510101607 | 5 | 281 | 0.0 | 3.2 | 0.00 | 0.00 | 0.00 | 66 | 1018.4 |
| 20260510101055 | 5 | 328 | 0.0 | 3.2 | 0.00 | 0.00 | 0.00 | 66 | 1018.2 |
| 20260510100555 | 5 | 283 | 0.0 | 3.2 | 0.00 | 0.00 | 0.00 | 66 | 1018.1 |
| 20260510100055 | 5 | 315 | 0.0 | 3.2 | 0.00 | 0.00 | 0.00 | 66 | 1017.9 |
| 20260510095552 | 5 | 337 | 0.0 | 3.2 | 0.00 | 0.00 | 0.00 | 67 | 1017.8 |
| 20260510095051 | 5 | 312 | 0.0 | 1.6 | 0.00 | 0.00 | 0.00 | 67 | 1017.8 |
| 20260510094552 | 5 | 318 | 0.0 | 1.6 | 0.00 | 0.00 | 0.00 | 67 | 1017.7 |
| 20260510094050 | 5 | 307 | 0.0 | 1.6 | 0.00 | 0.00 | 0.00 | 67 | 1017.6 |
| 20260510093550 | 5 | 328 | 0.0 | 3.2 | 0.00 | 0.00 | 0.00 | 66 | 1017.6 |
| 20260510093051 | 5 | 332 | 0.0 | 3.2 | 0.00 | 0.00 | 0.00 | 67 | 1017.6 |
| 20260510092553 | 5 | 318 | 0.0 | 1.6 | 0.00 | 0.00 | 0.00 | 67 | 1017.6 |
| 20260510092048 | 5 | 347 | 0.0 | 1.6 | 0.00 | 0.00 | 0.00 | 67 | 1017.6 |
| 20260510091549 | 5 | 346 | 0.0 | 1.6 | 0.00 | 0.00 | 0.00 | 68 | 1017.6 |
| 20260510091048 | 5 | 4 | 0.0 | 1.6 | 0.00 | 0.00 | 0.00 | 68 | 1017.5 |
| 20260510090547 | 5 | 20 | 0.0 | 0.0 | 0.00 | 0.00 | 0.00 | 68 | 1017.4 |
| 20260510090050 | 5 | 332 | 0.0 | 1.6 | 0.00 | 0.00 | 0.00 | 68 | 1017.3 |
| 20260510085544 | 5 | 309 | 0.0 | 1.6 | 0.00 | 0.00 | 0.00 | 69 | 1017.2 |
| 20260510085043 | 5 | 298 | 0.0 | 1.6 | 0.00 | 0.00 | 0.00 | 69 | 1017.1 |
| 20260510084542 | 5 | 264 | 0.0 | 1.6 | 0.00 | 0.00 | 0.00 | 67 | 1017.0 |
| 20260510084041 | 6 | 283 | 0.0 | 3.2 | 0.00 | 0.00 | 0.00 | 66 | 1017.0 |
| 20260510083544 | 6 | 285 | 0.0 | 3.2 | 0.00 | 0.00 | 0.00 | 64 | 1017.0 |
| 20260510083041 | 6 | 290 | 0.0 | 4.8 | 0.00 | 0.00 | 0.00 | 63 | 1017.0 |
| 20260510082540 | 6 | 308 | 0.0 | 4.8 | 0.00 | 0.00 | 0.00 | 65 | 1016.9 |
| 20260510082039 | 6 | 297 | 1.6 | 4.8 | 0.00 | 0.00 | 0.00 | 64 | 1016.8 |
| 20260510081544 | 6 | 269 | 0.0 | 4.8 | 0.00 | 0.00 | 0.00 | 64 | 1016.9 |
| 20260510081039 | 6 | 274 | 1.6 | 4.8 | 0.00 | 0.00 | 0.00 | 64 | 1016.8 |
| 20260510080539 | 6 | 276 | 0.0 | 3.2 | 0.00 | 0.00 | 0.00 | 64 | 1016.7 |
| 20260510080042 | 6 | 287 | 0.0 | 4.8 | 0.00 | 0.00 | 0.00 | 63 | 1016.6 |
| 20260510075536 | 6 | 296 | 1.6 | 4.8 | 0.00 | 0.00 | 0.00 | 63 | 1016.5 |
| 20260510075036 | 6 | 294 | 1.6 | 3.2 | 0.00 | 0.00 | 0.00 | 63 | 1016.5 |
| 20260510074536 | 6 | 298 | 1.6 | 8.0 | 0.00 | 0.00 | 0.00 | 65 | 1016.5 |
| 20260510074037 | 6 | 294 | 3.2 | 8.0 | 0.00 | 0.00 | 0.00 | 65 | 1016.5 |
| 20260510073535 | 6 | 288 | 3.2 | 4.8 | 0.00 | 0.00 | 0.00 | 65 | 1016.5 |
| 20260510073035 | 6 | 283 | 1.6 | 4.8 | 0.00 | 0.00 | 0.00 | 64 | 1016.5 |
| 20260510072535 | 6 | 267 | 1.6 | 4.8 | 0.00 | 0.00 | 0.00 | 64 | 1016.5 |
| 20260510072035 | 6 | 285 | 3.2 | 4.8 | 0.00 | 0.00 | 0.00 | 64 | 1016.5 |
| 20260510071535 | 6 | 288 | 3.2 | 6.4 | 0.00 | 0.00 | 0.00 | 65 | 1016.5 |
| 20260510071034 | 6 | 288 | 1.6 | 6.4 | 0.00 | 0.00 | 0.00 | 68 | 1016.5 |
| 20260510070533 | 5 | 278 | 1.6 | 3.2 | 0.00 | 0.00 | 0.00 | 69 | 1016.5 |
| 20260510070036 | 6 | 276 | 1.6 | 4.8 | 0.00 | 0.00 | 0.00 | 71 | 1016.5 |
| 20260510065532 | 6 | 271 | 1.6 | 4.8 | 0.00 | 0.00 | 0.00 | 71 | 1016.5 |
| 20260510065029 | 6 | 285 | 0.0 | 1.6 | 0.00 | 0.00 | 0.00 | 70 | 1016.5 |
| 20260510064527 | 6 | 288 | 0.0 | 1.6 | 0.00 | 0.00 | 0.00 | 67 | 1016.4 |
| 20260510064025 | 6 | 288 | 0.0 | 1.6 | 0.00 | 0.00 | 0.00 | 66 | 1016.4 |
| 20260510063524 | 7 | 287 | 0.0 | 1.6 | 0.00 | 0.00 | 0.00 | 64 | 1016.4 |
| 20260510063024 | 7 | 295 | 0.0 | 1.6 | 0.00 | 0.00 | 0.00 | 60 | 1016.4 |
| 20260510062523 | 7 | 287 | 0.0 | 1.6 | 0.00 | 0.00 | 0.00 | 58 | 1016.4 |
| 20260510062025 | 7 | 297 | 0.0 | 3.2 | 0.00 | 0.00 | 0.00 | 57 | 1016.4 |
| 20260510061526 | 7 | 307 | 0.0 | 4.8 | 0.00 | 0.00 | 0.00 | 56 | 1016.4 |
| 20260510061020 | 7 | 307 | 0.0 | 4.8 | 0.00 | 0.00 | 0.00 | 55 | 1016.4 |
| 20260510060522 | 7 | 295 | 0.0 | 3.2 | 0.00 | 0.00 | 0.00 | 54 | 1016.4 |
| 20260510060019 | 7 | 290 | 0.0 | 3.2 | 0.00 | 0.00 | 0.00 | 53 | 1016.5 |
| 20260510055518 | 7 | 311 | 0.0 | 3.2 | 0.00 | 0.00 | 0.00 | 52 | 1016.4 |
| 20260510055017 | 7 | 299 | 0.0 | 3.2 | 0.00 | 0.00 | 0.00 | 52 | 1016.3 |
| 20260510054516 | 7 | 308 | 0.0 | 3.2 | 0.00 | 0.00 | 0.00 | 52 | 1016.3 |
| 20260510054015 | 7 | 316 | 0.0 | 1.6 | 0.00 | 0.00 | 0.00 | 51 | 1016.2 |
| 20260510053514 | 7 | 314 | 0.0 | 1.6 | 0.00 | 0.00 | 0.00 | 51 | 1016.2 |
| 20260510053014 | 7 | 319 | 0.0 | 1.6 | 0.00 | 0.00 | 0.00 | 51 | 1016.2 |
| 20260510052512 | 8 | 311 | 0.0 | 1.6 | 0.00 | 0.00 | 0.00 | 50 | 1016.2 |
| 20260510052011 | 8 | 328 | 0.0 | 1.6 | 0.00 | 0.00 | 0.00 | 50 | 1016.1 |
| 20260510051517 | 8 | 328 | 0.0 | 1.6 | 0.00 | 0.00 | 0.00 | 49 | 1016.0 |
| 20260510051009 | 8 | 338 | 0.0 | 1.6 | 0.00 | 0.00 | 0.00 | 48 | 1016.0 |
| 20260510050509 | 8 | 335 | 0.0 | 1.6 | 0.00 | 0.00 | 0.00 | 48 | 1016.0 |
| 20260510050008 | 8 | 326 | 0.0 | 1.6 | 0.00 | 0.00 | 0.00 | 48 | 1015.9 |
| 20260510045510 | 8 | 316 | 0.0 | 3.2 | 0.00 | 0.00 | 0.00 | 48 | 1015.9 |
| 20260510045008 | 8 | 290 | 0.0 | 3.2 | 0.00 | 0.00 | 0.00 | 47 | 1015.9 |
| 20260510044510 | 8 | 299 | 0.0 | 3.2 | 0.00 | 0.00 | 0.00 | 47 | 1016.0 |
| 20260510044007 | 8 | 314 | 0.0 | 3.2 | 0.00 | 0.00 | 0.00 | 47 | 1016.0 |
| 20260510043507 | 8 | 320 | 0.0 | 3.2 | 0.00 | 0.00 | 0.00 | 47 | 1016.0 |
| 20260510043017 | 8 | 285 | 0.0 | 3.2 | 0.00 | 0.00 | 0.00 | 47 | 1016.0 |
| 20260510042510 | 8 | 278 | 0.0 | 3.2 | 0.00 | 0.00 | 0.00 | 47 | 1016.0 |
| 20260510042007 | 8 | 295 | 0.0 | 3.2 | 0.00 | 0.00 | 0.00 | 47 | 1016.0 |
| 20260510041506 | 8 | 328 | 0.0 | 3.2 | 0.00 | 0.00 | 0.00 | 46 | 1015.9 |
| 20260510041006 | 8 | 359 | 0.0 | 4.8 | 0.00 | 0.00 | 0.00 | 46 | 1015.9 |
| 20260510040506 | 8 | 294 | 0.0 | 4.8 | 0.00 | 0.00 | 0.00 | 46 | 1015.8 |
| 20260510040006 | 8 | 298 | 0.0 | 3.2 | 0.00 | 0.00 | 0.00 | 46 | 1015.9 |
| 20260510035504 | 8 | 301 | 0.0 | 3.2 | 0.00 | 0.00 | 0.00 | 45 | 1015.8 |
| 20260510035006 | 8 | 356 | 0.0 | 1.6 | 0.00 | 0.00 | 0.00 | 45 | 1015.8 |
| 20260510034504 | 8 | 345 | 0.0 | 3.2 | 0.00 | 0.00 | 0.00 | 45 | 1015.8 |
| 20260510034005 | 8 | 22 | 0.0 | 3.2 | 0.00 | 0.00 | 0.00 | 45 | 1015.8 |
| 20260510033502 | 8 | 22 | 0.0 | 4.8 | 0.00 | 0.00 | 0.00 | 44 | 1015.7 |
| 20260510033002 | 8 | 25 | 0.0 | 6.4 | 0.00 | 0.00 | 0.00 | 44 | 1015.6 |
| 20260510032501 | 9 | 55 | 0.0 | 8.0 | 0.00 | 0.00 | 0.00 | 43 | 1015.6 |
| 20260510032001 | 9 | 42 | 1.6 | 8.0 | 0.00 | 0.00 | 0.00 | 43 | 1015.5 |
| 20260510031502 | 9 | 13 | 3.2 | 8.0 | 0.00 | 0.00 | 0.00 | 42 | 1015.6 |
| 20260510031100 | 9 | 29 | 3.2 | 8.0 | 0.00 | 0.00 | 0.00 | 42 | 1015.5 |
| 20260510030603 | 9 | 22 | 1.6 | 11.3 | 0.00 | 0.00 | 0.00 | 42 | 1015.5 |
| 20260510030059 | 9 | 332 | 3.2 | 14.5 | 0.00 | 0.00 | 0.00 | 42 | 1015.4 |
| 20260510025558 | 9 | 13 | 1.6 | 14.5 | 0.00 | 0.00 | 0.00 | 41 | 1015.4 |
| 20260510025100 | 10 | 47 | 1.6 | 9.7 | 0.00 | 0.00 | 0.00 | 41 | 1015.2 |
| 20260510024610 | 10 | 343 | 1.6 | 9.7 | 0.00 | 0.00 | 0.00 | 41 | 1015.1 |
| 20260510024055 | 10 | 13 | 1.6 | 8.0 | 0.00 | 0.00 | 0.00 | 41 | 1015.0 |
| 20260510023554 | 10 | 10 | 0.0 | 9.7 | 0.00 | 0.00 | 0.00 | 40 | 1014.9 |
| 20260510023059 | 10 | 318 | 1.6 | 8.0 | 0.00 | 0.00 | 0.00 | 40 | 1014.8 |
| 20260510022553 | 10 | 341 | 1.6 | 11.3 | 0.00 | 0.00 | 0.00 | 40 | 1014.6 |
| 20260510022053 | 10 | 336 | 1.6 | 11.3 | 0.00 | 0.00 | 0.00 | 39 | 1014.6 |
| 20260510021552 | 10 | 35 | 4.8 | 14.5 | 0.00 | 0.00 | 0.00 | 39 | 1014.4 |
| 20260510021050 | 10 | 58 | 1.6 | 9.7 | 0.00 | 0.00 | 0.00 | 39 | 1014.3 |
| 20260510020552 | 10 | 349 | 3.2 | 12.9 | 0.00 | 0.00 | 0.00 | 38 | 1014.2 |
| 20260510020049 | 11 | 357 | 3.2 | 12.9 | 0.00 | 0.00 | 0.00 | 38 | 1014.2 |
| 20260510015651 | 11 | 345 | 3.2 | 14.5 | 0.00 | 0.00 | 0.00 | 38 | 1014.0 |
| 20260510015047 | 11 | 15 | 3.2 | 16.1 | 0.00 | 0.00 | 0.00 | 37 | 1013.8 |
| 20260510014557 | 11 | 9 | 4.8 | 12.9 | 0.00 | 0.00 | 0.00 | 37 | 1013.7 |
| 20260510014045 | 11 | 352 | 3.2 | 12.9 | 0.00 | 0.00 | 0.00 | 37 | 1013.7 |
| 20260510013545 | 11 | 4 | 1.6 | 11.3 | 0.00 | 0.00 | 0.00 | 37 | 1013.5 |
| 20260510013058 | 11 | 26 | 1.6 | 11.3 | 0.00 | 0.00 | 0.00 | 37 | 1013.4 |
| 20260510012548 | 11 | 33 | 1.6 | 12.9 | 0.00 | 0.00 | 0.00 | 37 | 1013.4 |
| 20260510012042 | 11 | 340 | 3.2 | 12.9 | 0.00 | 0.00 | 0.00 | 36 | 1013.2 |
| 20260510011542 | 11 | 37 | 3.2 | 14.5 | 0.00 | 0.00 | 0.00 | 36 | 1013.1 |
| 20260510011040 | 11 | 42 | 4.8 | 12.9 | 0.00 | 0.00 | 0.00 | 35 | 1013.0 |
| 20260510010540 | 12 | 354 | 8.0 | 14.5 | 0.00 | 0.00 | 0.00 | 35 | 1013.0 |
| 20260510010040 | 12 | 48 | 3.2 | 12.9 | 0.00 | 0.00 | 0.00 | 34 | 1012.9 |
| 20260510005540 | 12 | 339 | 6.4 | 14.5 | 0.00 | 0.00 | 0.00 | 34 | 1012.8 |
| 20260510005039 | 12 | 37 | 6.4 | 20.9 | 0.00 | 0.00 | 0.00 | 34 | 1012.8 |
| 20260510004545 | 12 | 63 | 8.0 | 20.9 | 0.00 | 0.00 | 0.00 | 34 | 1012.7 |
| 20260510004139 | 12 | 20 | 8.0 | 16.1 | 0.00 | 0.00 | 0.00 | 33 | 1012.6 |
| 20260510003538 | 13 | 328 | 3.2 | 16.1 | 0.00 | 0.00 | 0.00 | 34 | 1012.6 |
| 20260510003037 | 13 | 357 | 6.4 | 16.1 | 0.00 | 0.00 | 0.00 | 34 | 1012.7 |
| 20260510002537 | 13 | 40 | 6.4 | 17.7 | 0.00 | 0.00 | 0.00 | 33 | 1012.7 |
| 20260510002037 | 13 | 330 | 9.7 | 17.7 | 0.00 | 0.00 | 0.00 | 33 | 1012.5 |
| 20260510001536 | 13 | 33 | 8.0 | 16.1 | 0.00 | 0.00 | 0.00 | 34 | 1012.5 |
| 20260510001036 | 13 | 37 | 8.0 | 16.1 | 0.00 | 0.00 | 0.00 | 33 | 1012.5 |
| 20260510000534 | 13 | 11 | 8.0 | 16.1 | 0.00 | 0.00 | 0.00 | 33 | 1012.3 |
| 20260510000035 | 13 | 89 | 3.2 | 19.3 | 0.00 | 0.00 | 0.00 | 34 | 1012.3 |
| 20260509235533 | 13 | 13 | 6.4 | 19.3 | 0.00 | 0.00 | 0.00 | 33 | 1012.2 |
| 20260509235032 | 13 | 31 | 4.8 | 19.3 | 0.00 | 0.00 | 0.00 | 33 | 1012.1 |
| 20260509234534 | 13 | 47 | 9.7 | 16.1 | 0.00 | 0.00 | 0.00 | 33 | 1012.1 |
| 20260509234031 | 13 | 354 | 9.7 | 14.5 | 0.00 | 0.00 | 0.00 | 33 | 1012.1 |
| 20260509233530 | 13 | 22 | 6.4 | 19.3 | 0.00 | 0.00 | 0.00 | 33 | 1012.0 |
| 20260509233030 | 13 | 25 | 9.7 | 19.3 | 0.00 | 0.00 | 0.00 | 32 | 1012.0 |
| 20260509232530 | 13 | 27 | 6.4 | 20.9 | 0.00 | 0.00 | 0.00 | 32 | 1011.9 |
| 20260509232029 | 13 | 25 | 9.7 | 20.9 | 0.00 | 0.00 | 0.00 | 32 | 1011.9 |
| 20260509231529 | 13 | 6 | 9.7 | 20.9 | 0.00 | 0.00 | 0.00 | 32 | 1011.7 |
| 20260509231028 | 13 | 345 | 8.0 | 29.0 | 0.00 | 0.00 | 0.00 | 32 | 1011.8 |
| 20260509230528 | 13 | 333 | 9.7 | 29.0 | 0.00 | 0.00 | 0.00 | 32 | 1011.8 |
| 20260509230028 | 13 | 317 | 9.7 | 30.6 | 0.00 | 0.00 | 0.00 | 32 | 1011.7 |
| 20260509225528 | 13 | 322 | 6.4 | 30.6 | 0.00 | 0.00 | 0.00 | 32 | 1011.6 |
| 20260509225027 | 13 | 260 | 8.0 | 24.1 | 0.00 | 0.00 | 0.00 | 33 | 1011.5 |
| 20260509224526 | 13 | 345 | 12.9 | 24.1 | 0.00 | 0.00 | 0.00 | 33 | 1011.5 |
| 20260509224025 | 13 | 33 | 12.9 | 20.9 | 0.00 | 0.00 | 0.00 | 32 | 1011.4 |
| 20260509223524 | 13 | 313 | 6.4 | 25.7 | 0.00 | 0.00 | 0.00 | 33 | 1011.3 |
| 20260509223025 | 13 | 323 | 11.3 | 25.7 | 0.00 | 0.00 | 0.00 | 32 | 1011.3 |
| 20260509222528 | 13 | 34 | 9.7 | 29.0 | 0.00 | 0.00 | 0.00 | 32 | 1011.4 |
| 20260509222025 | 13 | 50 | 17.7 | 29.0 | 0.00 | 0.00 | 0.00 | 31 | 1011.3 |
| 20260509221522 | 13 | 33 | 8.0 | 20.9 | 0.00 | 0.00 | 0.00 | 32 | 1011.3 |
| 20260509221022 | 13 | 4 | 11.3 | 24.1 | 0.00 | 0.00 | 0.00 | 31 | 1011.1 |
| 20260509220521 | 13 | 40 | 8.0 | 24.1 | 0.00 | 0.00 | 0.00 | 30 | 1011.2 |
| 20260509220021 | 13 | 352 | 9.7 | 24.1 | 0.00 | 0.00 | 0.00 | 31 | 1011.1 |
| 20260509215521 | 13 | 25 | 11.3 | 25.7 | 0.00 | 0.00 | 0.00 | 33 | 1011.1 |
| 20260509215023 | 13 | 4 | 8.0 | 25.7 | 0.00 | 0.00 | 0.00 | 33 | 1011.1 |
| 20260509214520 | 13 | 35 | 9.7 | 19.3 | 0.00 | 0.00 | 0.00 | 33 | 1011.1 |
| 20260509214019 | 13 | 332 | 9.7 | 19.3 | 0.00 | 0.00 | 0.00 | 32 | 1011.1 |
| 20260509213519 | 13 | 15 | 8.0 | 20.9 | 0.00 | 0.00 | 0.00 | 32 | 1011.0 |
| 20260509213018 | 13 | 332 | 9.7 | 20.9 | 0.00 | 0.00 | 0.00 | 33 | 1011.0 |
| 20260509212517 | 13 | 10 | 9.7 | 22.5 | 0.00 | 0.00 | 0.00 | 33 | 1010.9 |
| 20260509212017 | 13 | 336 | 12.9 | 29.0 | 0.00 | 0.00 | 0.00 | 33 | 1010.9 |
| 20260509211617 | 13 | 43 | 11.3 | 29.0 | 0.00 | 0.00 | 0.00 | 33 | 1010.8 |
| 20260509211019 | 13 | 337 | 4.8 | 22.5 | 0.00 | 0.00 | 0.00 | 34 | 1010.8 |
| 20260509210516 | 13 | 53 | 8.0 | 25.7 | 0.00 | 0.00 | 0.00 | 34 | 1010.8 |
| 20260509210016 | 13 | 30 | 12.9 | 24.1 | 0.00 | 0.00 | 0.00 | 34 | 1010.6 |
| 20260509205513 | 13 | 8 | 9.7 | 25.7 | 0.00 | 0.00 | 0.00 | 34 | 1010.7 |
| 20260509205013 | 13 | 336 | 12.9 | 25.7 | 0.00 | 0.00 | 0.00 | 33 | 1010.8 |
| 20260509204516 | 13 | 337 | 11.3 | 27.4 | 0.00 | 0.00 | 0.00 | 35 | 1010.7 |
| 20260509204014 | 13 | 335 | 12.9 | 29.0 | 0.00 | 0.00 | 0.00 | 33 | 1010.6 |
| 20260509203510 | 13 | 22 | 11.3 | 29.0 | 0.00 | 0.00 | 0.00 | 34 | 1010.7 |
| 20260509203012 | 13 | 44 | 12.9 | 20.9 | 0.00 | 0.00 | 0.00 | 34 | 1010.6 |
| 20260509202511 | 13 | 38 | 6.4 | 25.7 | 0.00 | 0.00 | 0.00 | 35 | 1010.6 |
| 20260509202007 | 13 | 294 | 6.4 | 25.7 | 0.00 | 0.00 | 0.00 | 36 | 1010.6 |
| 20260509201506 | 13 | 352 | 8.0 | 30.6 | 0.00 | 0.00 | 0.00 | 36 | 1010.5 |
| 20260509201006 | 13 | 358 | 11.3 | 35.4 | 0.00 | 0.00 | 0.00 | 34 | 1010.5 |
| 20260509200504 | 13 | 63 | 22.5 | 35.4 | 0.00 | 0.00 | 0.00 | 34 | 1010.4 |
| 20260509200004 | 13 | 9 | 9.7 | 22.5 | 0.00 | 0.00 | 0.00 | 33 | 1010.4 |
| 20260509195503 | 13 | 349 | 8.0 | 24.1 | 0.00 | 0.00 | 0.00 | 36 | 1010.5 |
| 20260509195002 | 13 | 354 | 9.7 | 24.1 | 0.00 | 0.00 | 0.00 | 36 | 1010.3 |
| 20260509194501 | 13 | 22 | 11.3 | 24.1 | 0.00 | 0.00 | 0.00 | 35 | 1010.3 |
| 20260509194001 | 12 | 73 | 9.7 | 30.6 | 0.00 | 0.00 | 0.00 | 35 | 1010.2 |
| 20260509193600 | 13 | 25 | 12.9 | 30.6 | 0.00 | 0.00 | 0.00 | 34 | 1010.3 |
| 20260509193100 | 13 | 316 | 11.3 | 25.7 | 0.00 | 0.00 | 0.00 | 34 | 1010.3 |
| 20260509192601 | 13 | 46 | 8.0 | 25.7 | 0.00 | 0.00 | 0.00 | 35 | 1010.2 |
| 20260509192103 | 13 | 18 | 8.0 | 27.4 | 0.00 | 0.00 | 0.00 | 35 | 1010.3 |
| 20260509191600 | 13 | 58 | 11.3 | 27.4 | 0.00 | 0.00 | 0.00 | 34 | 1010.2 |
| 20260509191100 | 12 | 12 | 9.7 | 25.7 | 0.00 | 0.00 | 0.00 | 35 | 1010.1 |
| 20260509190600 | 13 | 18 | 12.9 | 25.7 | 0.00 | 0.00 | 0.00 | 35 | 1010.1 |
| 20260509190058 | 13 | 54 | 12.9 | 22.5 | 0.00 | 0.00 | 0.00 | 36 | 1010.0 |
| 20260509185558 | 13 | 5 | 11.3 | 22.5 | 0.00 | 0.00 | 0.00 | 37 | 1009.9 |
| 20260509185058 | 12 | 63 | 8.0 | 20.9 | 0.00 | 0.00 | 0.00 | 35 | 1009.9 |
| 20260509184558 | 12 | 30 | 12.9 | 22.5 | 0.00 | 0.00 | 0.00 | 37 | 1009.9 |
| 20260509184056 | 12 | 33 | 12.9 | 22.5 | 0.00 | 0.00 | 0.00 | 36 | 1010.0 |
| 20260509183556 | 12 | 20 | 8.0 | 22.5 | 0.00 | 0.00 | 0.00 | 38 | 1009.8 |
| 20260509183055 | 12 | 360 | 12.9 | 17.7 | 0.00 | 0.00 | 0.00 | 37 | 1009.7 |
| 20260509182555 | 12 | 326 | 6.4 | 16.1 | 0.00 | 0.00 | 0.00 | 38 | 1009.7 |
| 20260509182054 | 12 | 26 | 4.8 | 25.7 | 0.00 | 0.00 | 0.00 | 37 | 1009.7 |
| 20260509181554 | 12 | 33 | 12.9 | 25.7 | 0.00 | 0.00 | 0.00 | 37 | 1009.7 |
| 20260509181053 | 12 | 5 | 9.7 | 27.4 | 0.00 | 0.00 | 0.00 | 37 | 1009.7 |
| 20260509180551 | 12 | 13 | 9.7 | 24.1 | 0.00 | 0.00 | 0.00 | 39 | 1009.7 |
| 20260509180051 | 12 | 60 | 12.9 | 24.1 | 0.00 | 0.00 | 0.00 | 38 | 1009.7 |
| 20260509175551 | 12 | 340 | 9.7 | 24.1 | 0.00 | 0.00 | 0.00 | 38 | 1009.7 |
| 20260509175050 | 12 | 32 | 11.3 | 24.1 | 0.00 | 0.00 | 0.00 | 38 | 1009.8 |
| 20260509174550 | 12 | 354 | 11.3 | 22.5 | 0.00 | 0.00 | 0.00 | 39 | 1009.7 |
| 20260509174048 | 12 | 352 | 16.1 | 20.9 | 0.00 | 0.00 | 0.00 | 40 | 1009.5 |
| 20260509173547 | 12 | 16 | 9.7 | 22.5 | 0.00 | 0.00 | 0.00 | 41 | 1009.5 |
| 20260509173114 | 12 | 15 | 9.7 | 25.7 | 0.00 | 0.00 | 0.00 | 41 | 1009.6 |
| 20260509172546 | 12 | 356 | 11.3 | 25.7 | 0.00 | 0.00 | 0.00 | 44 | 1009.4 |
| 20260509172046 | 11 | 16 | 9.7 | 19.3 | 0.00 | 0.00 | 0.00 | 43 | 1009.4 |
| 20260509171547 | 11 | 304 | 8.0 | 27.4 | 0.00 | 0.00 | 0.00 | 43 | 1009.3 |
| 20260509171047 | 11 | 323 | 9.7 | 27.4 | 0.00 | 0.00 | 0.00 | 44 | 1009.3 |
| 20260509170548 | 11 | 16 | 9.7 | 27.4 | 0.00 | 0.00 | 0.00 | 43 | 1009.3 |
| 20260509170053 | 11 | 311 | 11.3 | 19.3 | 0.00 | 0.00 | 0.00 | 45 | 1009.2 |
| 20260509165543 | 11 | 333 | 9.7 | 19.3 | 0.00 | 0.00 | 0.00 | 43 | 1009.3 |
| 20260509165042 | 11 | 42 | 12.9 | 37.0 | 0.00 | 0.00 | 0.00 | 44 | 1009.2 |
| 20260509164542 | 11 | 48 | 22.5 | 37.0 | 0.00 | 0.00 | 0.00 | 42 | 1009.1 |
| 20260509164040 | 11 | 23 | 6.4 | 29.0 | 0.00 | 0.00 | 0.00 | 45 | 1009.1 |
| 20260509163539 | 11 | 18 | 14.5 | 29.0 | 0.00 | 0.00 | 0.00 | 44 | 1009.1 |
| 20260509163041 | 11 | 58 | 11.3 | 22.5 | 0.00 | 0.00 | 0.00 | 43 | 1009.0 |
| 20260509162542 | 11 | 1 | 12.9 | 22.5 | 0.00 | 0.00 | 0.00 | 45 | 1008.9 |
| 20260509162038 | 11 | 54 | 11.3 | 33.8 | 0.00 | 0.00 | 0.00 | 46 | 1008.9 |
| 20260509161543 | 11 | 12 | 14.5 | 27.4 | 0.00 | 0.00 | 0.00 | 46 | 1008.9 |
| 20260509161038 | 11 | 67 | 12.9 | 30.6 | 0.00 | 0.00 | 0.00 | 45 | 1008.8 |
| 20260509160536 | 11 | 35 | 12.9 | 25.7 | 0.00 | 0.00 | 0.00 | 47 | 1008.8 |
| 20260509160036 | 11 | 29 | 16.1 | 40.2 | 0.00 | 0.00 | 0.00 | 45 | 1008.8 |
| 20260509155535 | 11 | 77 | 16.1 | 40.2 | 0.00 | 0.00 | 0.00 | 45 | 1008.6 |
| 20260509155136 | 11 | 44 | 19.3 | 35.4 | 0.00 | 0.00 | 0.00 | 44 | 1008.7 |
| 20260509154513 | 11 | 46 | 6.4 | 25.7 | 0.00 | 0.00 | 0.00 | 48 | 1008.5 |
| 20260509154101 | 11 | 315 | 9.7 | 24.1 | 0.00 | 0.00 | 0.00 | 48 | 1008.5 |
| 20260509153603 | 11 | 6 | 11.3 | 24.1 | 0.00 | 0.00 | 0.00 | 49 | 1008.3 |
| 20260509153058 | 11 | 9 | 8.0 | 16.1 | 0.00 | 0.00 | 0.00 | 50 | 1008.3 |
| 20260509152602 | 10 | 41 | 9.7 | 19.3 | 0.00 | 0.00 | 0.00 | 53 | 1008.1 |
| 20260509152057 | 10 | 63 | 11.3 | 24.1 | 0.00 | 0.00 | 0.00 | 54 | 1008.1 |
| 20260509151616 | 10 | 42 | 12.9 | 24.1 | 0.00 | 0.00 | 0.00 | 52 | 1008.0 |
| 20260509151056 | 10 | 32 | 8.0 | 27.4 | 0.00 | 0.00 | 0.00 | 53 | 1007.9 |
| 20260509150555 | 10 | 18 | 8.0 | 27.4 | 0.00 | 0.00 | 0.00 | 52 | 1007.9 |
| 20260509150054 | 10 | 293 | 9.7 | 25.7 | 0.00 | 0.00 | 0.00 | 55 | 1007.7 |
| 20260509145553 | 10 | 353 | 6.4 | 27.4 | 0.00 | 0.00 | 0.00 | 56 | 1007.7 |
| 20260509145052 | 10 | 41 | 12.9 | 25.7 | 0.00 | 0.00 | 0.00 | 56 | 1007.6 |
| 20260509144553 | 10 | 11 | 11.3 | 27.4 | 0.00 | 0.00 | 0.00 | 56 | 1007.6 |
| 20260509144054 | 10 | 48 | 17.7 | 27.4 | 0.00 | 0.00 | 0.00 | 59 | 1007.5 |
| 20260509143550 | 10 | 89 | 4.8 | 19.3 | 0.00 | 0.00 | 0.00 | 59 | 1007.4 |
| 20260509143527 | 10 | 329 | 8.0 | 19.3 | 0.00 | 0.00 | 0.00 | 59 | 1007.4 |
| 20260509143057 | 10 | 314 | 4.8 | 19.3 | 0.00 | 0.00 | 0.00 | 61 | 1007.4 |
| 20260509142548 | 10 | 349 | 4.8 | 22.5 | 0.00 | 0.00 | 0.00 | 63 | 1007.3 |
| 20260509142148 | 10 | 6 | 6.4 | 22.5 | 0.00 | 0.00 | 0.00 | 63 | 1007.3 |
| 20260509141550 | 10 | 4 | 8.0 | 20.9 | 0.00 | 0.00 | 0.00 | 63 | 1007.1 |
| 20260509141200 | 10 | 51 | 4.8 | 19.3 | 0.00 | 0.00 | 0.00 | 64 | 1007.1 |
| 20260509140546 | 10 | 26 | 6.4 | 29.0 | 0.00 | 0.00 | 0.00 | 67 | 1007.1 |
| 20260509140047 | 9 | 57 | 8.0 | 29.0 | 0.00 | 0.00 | 0.00 | 67 | 1007.0 |
| 20260509135549 | 9 | 10 | 12.9 | 27.4 | 0.00 | 0.00 | 0.00 | 65 | 1007.0 |
| 20260509135050 | 9 | 60 | 9.7 | 25.7 | 0.00 | 0.00 | 0.00 | 66 | 1007.0 |
| 20260509134547 | 9 | 68 | 9.7 | 25.7 | 0.00 | 0.00 | 0.00 | 68 | 1007.0 |
| 20260509134045 | 9 | 79 | 11.3 | 25.7 | 0.00 | 0.00 | 0.00 | 70 | 1006.9 |
| 20260509133544 | 8 | 48 | 11.3 | 17.7 | 0.00 | 0.00 | 0.00 | 72 | 1006.8 |
| 20260509133144 | 8 | 4 | 8.0 | 20.9 | 0.00 | 0.00 | 0.00 | 72 | 1006.8 |
| 20260509132558 | 8 | 63 | 11.3 | 25.7 | 0.00 | 0.00 | 0.00 | 72 | 1006.6 |
| 20260509132043 | 8 | 56 | 12.9 | 25.7 | 0.00 | 0.00 | 0.00 | 73 | 1006.6 |
| 20260509131555 | 8 | 59 | 12.9 | 24.1 | 0.00 | 0.00 | 0.00 | 75 | 1006.5 |
| 20260509131039 | 8 | 60 | 9.7 | 24.1 | 0.00 | 0.00 | 0.00 | 78 | 1006.5 |
| 20260509130539 | 8 | 39 | 12.9 | 24.1 | 0.00 | 0.00 | 0.00 | 79 | 1006.3 |
| 20260509130057 | 8 | 56 | 8.0 | 14.5 | 0.00 | 0.00 | 0.00 | 80 | 1006.2 |
| 20260509125536 | 8 | 358 | 8.0 | 17.7 | 0.00 | 0.00 | 0.00 | 81 | 1006.1 |
| 20260509125035 | 8 | 18 | 11.3 | 17.7 | 0.00 | 0.00 | 0.00 | 81 | 1006.0 |
| 20260509124537 | 8 | 47 | 1.6 | 12.9 | 0.00 | 0.00 | 0.00 | 84 | 1005.9 |
| 20260509124034 | 8 | 46 | 6.4 | 12.9 | 0.00 | 0.00 | 0.00 | 84 | 1005.8 |
| 20260509123533 | 8 | 58 | 3.2 | 12.9 | 0.00 | 0.00 | 0.00 | 85 | 1005.7 |
| 20260509123120 | 8 | 61 | 6.4 | 12.9 | 0.00 | 0.00 | 0.00 | 86 | 1005.6 |
| 20260509122531 | 8 | 44 | 3.2 | 11.3 | 0.00 | 0.00 | 0.00 | 86 | 1005.6 |
| 20260509122031 | 7 | 27 | 6.4 | 14.5 | 0.00 | 0.00 | 0.00 | 87 | 1005.5 |
| 20260509121530 | 7 | 51 | 6.4 | 19.3 | 0.00 | 0.00 | 0.00 | 87 | 1005.4 |